Jeszkotle, Poland

12:08 AM CEST on June 28, 2017 (GMT +0200)
Jeszkotle

Weather History for 12424 - August, 2013

Change the Weather History Date:

Thursday, August 1, 2013

  Actual Average Record
Temperature  
Mean Temperature 70 °F -  
Max Temperature 81 °F 74 °F - ()
Min Temperature 60 °F 53 °F - ()
Cooling Degree Days 6    
Growing Degree Days 20 (Base 50)    
Moisture  
Dew Point 59 °F    
Average Humidity 64    
Maximum Humidity 88    
Minimum Humidity 33    
Precipitation  
Precipitation 0.00 in 0.10 in - ()
Sea Level Pressure  
Sea Level Pressure 30.10 in    
Wind  
Wind Speed 4 mph ()    
Max Wind Speed 8 mph    
Max Gust Speed -    
Visibility 6.2 miles    
Events      
T = Trace of Precipitation, MM = Missing Value Source: Averaged Metar Reports

Daily Weather History Graph

Daily Weather History Graph

Search for Another Location

Airport or City:

Trip Planner

Search our weather history database for the weather conditions in past years. The results will help you decide how hot, cold, wet, or windy it might be!

Date:

Astronomy

Aug. 01, 2013 Rise Set
Actual Time 5:17 AM CEST 8:38 PM CEST
Civil Twilight 4:37 AM CEST 9:18 PM CEST
Nautical Twilight 3:44 AM CEST 10:11 PM CEST
Astronomical Twilight 2:30 AM CEST 11:23 PM CEST
Moon 12:39 AM CEST (8/1) 4:36 PM CEST (8/1)
Length of Visible Light 16h 40m
Length of Day
15h 21m
Waning Crescent, 25% of the Moon is Illuminated
Aug 1
Waning Crescent
Aug 6
New
Aug 14
First Quarter
Aug 21
Full
Aug 28
Last Quarter

Hourly Weather History & Observations

Time (CEST) Temp. Heat Index Dew Point Humidity Pressure Visibility Wind Dir Wind Speed Gust Speed Precip Events Conditions
12:00 AM 68.0 °F - 59.0 °F 73% 30.09 in - West 8.1 mph - N/A   Clear
12:30 AM 68.0 °F - 59.0 °F 73% 30.09 in - West 8.1 mph - N/A   Clear
1:00 AM 68.0 °F - 59.0 °F 73% 30.09 in - West 5.8 mph - N/A   Clear
1:30 AM 66.2 °F - 60.8 °F 83% 30.09 in - WSW 4.6 mph - N/A   Clear
2:00 AM 64 °F - 59 °F 79% 30.11 in 31 mi West 4.5 mph - -   Mostly Cloudy
2:00 AM 66.2 °F - 59.0 °F 78% 30.09 in - West 6.9 mph - N/A   Clear
2:30 AM 64.4 °F - 59.0 °F 83% 30.09 in - WSW 4.6 mph - N/A   Clear
3:00 AM 62.6 °F - 59.0 °F 88% 30.09 in - WSW 5.8 mph - N/A   Clear
3:30 AM 60.8 °F - 57.2 °F 88% 30.09 in - WSW 2.3 mph - N/A   Clear
4:00 AM 60.8 °F - 57.2 °F 88% 30.09 in - WSW 2.3 mph - N/A   Clear
4:30 AM 62.6 °F - 57.2 °F 82% 30.12 in - WNW 3.5 mph - N/A   Clear
5:00 AM 60.8 °F - 57.2 °F 88% 30.12 in - Variable 2.3 mph - N/A   Clear
5:30 AM 60.8 °F - 57.2 °F 88% 30.12 in - WSW 3.5 mph - N/A   Clear
6:00 AM 60.8 °F - 57.2 °F 88% 30.12 in - WSW 3.5 mph - N/A   Clear
6:30 AM 62.6 °F - 57.2 °F 82% 30.12 in - WSW 5.8 mph - N/A   Clear
7:00 AM 64.4 °F - 57.2 °F 77% 30.12 in - West 5.8 mph - N/A   Clear
7:30 AM 66.2 °F - 59.0 °F 78% 30.12 in - West 4.6 mph - N/A   Clear
8:00 AM 68.0 °F - 59.0 °F 73% 30.12 in - West 4.6 mph - N/A   Clear
8:30 AM 69.8 °F - 59.0 °F 68% 30.12 in - WNW 6.9 mph - N/A   Clear
9:00 AM 71.6 °F - 59.0 °F 64% 30.15 in - West 5.8 mph - N/A   Clear
9:30 AM 73.4 °F - 59.0 °F 61% 30.12 in 6.2 mi West 3.5 mph - N/A   Partly Cloudy
10:00 AM 73.4 °F - 59.0 °F 61% 30.15 in 6.2 mi Variable 3.5 mph - N/A   Scattered Clouds
10:30 AM 75.2 °F - 57.2 °F 53% 30.12 in 6.2 mi WNW 3.5 mph - N/A   Scattered Clouds
11:00 AM 73 °F - 57 °F 46% 30.12 in 31 mi WSW 6.7 mph - -   Partly Cloudy
11:00 AM 75.2 °F - 57.2 °F 53% 30.12 in 6.2 mi WNW 5.8 mph - N/A   Scattered Clouds
11:30 AM 77.0 °F - 57.2 °F 50% 30.12 in 6.2 mi NW 5.8 mph - N/A   Scattered Clouds
12:00 PM 77.0 °F - 57.2 °F 50% 30.12 in 6.2 mi NW 5.8 mph - N/A   Partly Cloudy
12:30 PM 77.0 °F - 57.2 °F 50% 30.12 in 6.2 mi Variable 4.6 mph - N/A   Partly Cloudy
1:00 PM 78.8 °F - 57.2 °F 47% 30.12 in 6.2 mi WNW 6.9 mph - N/A   Partly Cloudy
1:30 PM 80.6 °F 80.8 °F 57.2 °F 45% 30.09 in 6.2 mi WNW 5.8 mph - N/A   Scattered Clouds
2:00 PM 78 °F - 56 °F 36% 30.09 in 31 mi North 4.5 mph - -   Partly Cloudy
2:00 PM 80.6 °F 81.1 °F 59.0 °F 48% 30.09 in - NW 4.6 mph - N/A   Clear
2:30 PM 80.6 °F 80.8 °F 57.2 °F 45% 30.09 in - North 5.8 mph - N/A   Clear
3:00 PM 80.6 °F 80.5 °F 55.4 °F 42% 30.09 in - NW 5.8 mph - N/A   Clear
3:30 PM 82.4 °F 82.5 °F 59.0 °F 45% 30.09 in - Variable 3.5 mph - N/A   Clear
4:00 PM 80.6 °F 80.8 °F 57.2 °F 45% 30.09 in - North 5.8 mph - N/A   Clear
4:30 PM 80.6 °F 80.8 °F 57.2 °F 45% 30.09 in - NNW 5.8 mph - N/A   Clear
5:00 PM 80 °F - 56 °F 33% 30.06 in 31 mi NW 4.5 mph - -   Partly Cloudy
5:00 PM 82.4 °F 82.5 °F 59.0 °F 45% 30.09 in - Variable 4.6 mph - N/A   Clear
5:30 PM 80.6 °F 80.8 °F 57.2 °F 45% 30.06 in - Variable 2.3 mph - N/A   Clear
6:00 PM 82.4 °F 82.5 °F 59.0 °F 45% 30.06 in - NNW 4.6 mph - N/A   Clear
6:30 PM 82.4 °F 82.5 °F 59.0 °F 45% 30.06 in - North 5.8 mph - N/A   Clear
7:00 PM 80.6 °F 81.1 °F 59.0 °F 48% 30.06 in - Variable 2.3 mph - N/A   Clear
7:30 PM 78.8 °F - 62.6 °F 57% 30.06 in - NNE 3.5 mph - N/A   Clear
8:00 PM 78 °F - 59 °F 41% 30.06 in 31 mi NNE 4.5 mph - -   Scattered Clouds
8:00 PM 78.8 °F - 62.6 °F 57% 30.06 in - NNE 3.5 mph - N/A   Clear
8:30 PM 71.6 °F - 62.6 °F 73% 30.06 in - Calm Calm - N/A   Clear
9:00 PM 69.8 °F - 62.6 °F 78% 30.09 in - Calm Calm - N/A   Clear
9:30 PM 69.8 °F - 62.6 °F 78% 30.09 in - Variable 1.2 mph - N/A   Clear
10:00 PM 69.8 °F - 60.8 °F 73% 30.09 in - Calm Calm - N/A   Clear
10:30 PM 69.8 °F - 62.6 °F 78% 30.09 in - SSW 1.2 mph - N/A   Clear
11:00 PM 69 °F - 60 °F 67% 30.08 in 31 mi South 2.2 mph - -   Mostly Cloudy
11:00 PM 68.0 °F - 60.8 °F 78% 30.09 in - South 2.3 mph - N/A   Clear
11:30 PM 66.2 °F - 60.8 °F 83% 30.09 in - Variable 1.2 mph - N/A   Clear